OESTC KJAX-KMSY

Flight info

Callsign OESTC
Flight time N/A
Altitude 32000
Route JETIN2 CAPPS SZW CEW J2 SJI GPT MNSTR1
Aircraft B744/H-SDE3FGHIM1M2RWXY/LB1

Departure

Time 2026-04-30 13:50
Airport Jacksonville International Airport (KJAX)

Arrival

Time N/A
Airport Louis Armstrong New Orleans International Airport (KMSY)
Time Latitude Longitude Altitude Speed Heading
2026-04-30 13:32 30.48615 -81.68490 46 ft 0 kts 99°
2026-04-30 13:38 30.48616 -81.68537 41 ft 4 kts 74°
2026-04-30 13:38 30.48612 -81.68553 40 ft 0 kts 67°
2026-04-30 13:40 30.48644 -81.68518 39 ft 12 kts
2026-04-30 13:41 30.48714 -81.68564 40 ft 13 kts 286°
2026-04-30 13:41 30.48748 -81.68668 41 ft 11 kts 319°
2026-04-30 13:41 30.48828 -81.68692 41 ft 10 kts 341°
2026-04-30 13:41 30.48898 -81.68732 41 ft 12 kts 329°
2026-04-30 13:42 30.48977 -81.68788 40 ft 14 kts 328°
2026-04-30 13:42 30.49068 -81.68855 41 ft 17 kts 338°
2026-04-30 13:42 30.49319 -81.68871 39 ft 21 kts 48°
2026-04-30 13:43 30.49361 -81.68801 40 ft 7 kts 57°
2026-04-30 13:43 30.49399 -81.68744 39 ft 10 kts 49°
2026-04-30 13:43 30.49451 -81.68675 39 ft 13 kts 49°
2026-04-30 13:43 30.49518 -81.68586 39 ft 16 kts 47°
2026-04-30 13:44 30.49612 -81.68506 39 ft 18 kts 13°
2026-04-30 13:44 30.49721 -81.68481 40 ft 17 kts
2026-04-30 13:44 30.49839 -81.68459 38 ft 17 kts 14°
2026-04-30 13:44 30.49928 -81.68420 37 ft 14 kts 64°
2026-04-30 13:45 30.49999 -81.68184 38 ft 17 kts 69°
2026-04-30 13:45 30.50045 -81.68048 41 ft 19 kts 69°
2026-04-30 13:45 30.50093 -81.67896 38 ft 22 kts 70°
2026-04-30 13:46 30.50145 -81.67726 41 ft 24 kts 70°
2026-04-30 13:46 30.50204 -81.67532 34 ft 27 kts 71°
2026-04-30 13:46 30.50268 -81.67321 33 ft 26 kts 70°
2026-04-30 13:46 30.50297 -81.67227 33 ft 10 kts 70°
2026-04-30 13:47 30.50322 -81.67145 35 ft 11 kts 70°
2026-04-30 13:47 30.50348 -81.67061 34 ft 12 kts 71°
2026-04-30 13:47 30.50368 -81.66985 35 ft 8 kts 63°
2026-04-30 13:47 30.50418 -81.66968 38 ft 3 kts 340°
2026-04-30 13:48 30.50417 -81.66968 38 ft 0 kts 341°
2026-04-30 13:48 30.50419 -81.66969 38 ft 2 kts 341°
2026-04-30 13:48 30.50442 -81.66978 37 ft 5 kts 342°
2026-04-30 13:49 30.50485 -81.66994 36 ft 8 kts 340°
2026-04-30 13:49 30.50530 -81.67042 35 ft 11 kts 275°
2026-04-30 13:49 30.50502 -81.67141 34 ft 15 kts 248°
2026-04-30 13:49 30.50441 -81.67322 34 ft 46 kts 249°
2026-04-30 13:50 30.50248 -81.67936 39 ft 109 kts 252°
2026-04-30 13:50 30.49536 -81.70169 121 ft 175 kts 249°
2026-04-30 13:50 30.49102 -81.71498 661 ft 162 kts 250°
2026-04-30 13:51 30.48683 -81.72843 1152 ft 170 kts 250°
2026-04-30 13:51 30.48240 -81.74267 1438 ft 195 kts 250°
2026-04-30 13:51 30.47761 -81.75807 1819 ft 210 kts 250°
2026-04-30 13:51 30.47248 -81.77456 2268 ft 218 kts 250°
2026-04-30 13:52 30.46696 -81.79228 2714 ft 233 kts 250°
2026-04-30 13:52 30.46110 -81.81108 3262 ft 245 kts 250°
2026-04-30 13:52 30.45502 -81.83057 4006 ft 247 kts 250°
2026-04-30 13:52 30.44886 -81.85027 4823 ft 248 kts 250°
2026-04-30 13:53 30.44263 -81.87014 5679 ft 261 kts 250°
2026-04-30 13:53 30.43635 -81.89011 6547 ft 264 kts 250°
2026-04-30 13:53 30.43000 -81.91018 7354 ft 266 kts 250°
2026-04-30 13:53 30.42358 -81.93035 8204 ft 268 kts 250°
2026-04-30 13:54 30.41709 -81.95065 9038 ft 270 kts 250°
2026-04-30 13:54 30.41046 -81.97124 9684 ft 273 kts 250°
2026-04-30 13:54 30.40381 -81.99180 9888 ft 270 kts 250°
2026-04-30 13:54 30.39698 -82.01290 9933 ft 298 kts 250°
2026-04-30 13:55 30.38933 -82.03659 9939 ft 333 kts 250°
2026-04-30 13:55 30.38103 -82.06233 9923 ft 345 kts 250°
2026-04-30 13:55 30.37242 -82.08905 9989 ft 352 kts 250°
2026-04-30 13:55 30.36376 -82.11593 10574 ft 357 kts 250°
2026-04-30 13:56 30.35512 -82.14264 11265 ft 360 kts 250°
2026-04-30 13:56 30.34628 -82.16984 11993 ft 361 kts 250°
2026-04-30 13:56 30.50416 -81.66968 35 ft 3 kts 341°
2026-04-30 13:56 30.50434 -81.66975 36 ft 4 kts 341°
2026-04-30 13:57 30.50471 -81.66990 36 ft 7 kts 341°
2026-04-30 13:57 30.50527 -81.67013 37 ft 10 kts 341°
2026-04-30 13:57 30.50557 -81.67068 34 ft 11 kts 207°
2026-04-30 13:57 30.50515 -81.67106 33 ft 0 kts 245°
2026-04-30 13:59 30.50473 -81.67220 33 ft 43 kts 248°
2026-04-30 13:59 30.50281 -81.67814 35 ft 109 kts 250°
2026-04-30 13:59 30.49965 -81.68864 41 ft 162 kts 251°
2026-04-30 14:00 30.49585 -81.70140 636 ft 137 kts 251°
2026-04-30 14:00 30.48781 -81.72760 1037 ft 186 kts 250°
2026-04-30 14:00 30.48324 -81.74282 1223 ft 207 kts 256°
2026-04-30 14:01 30.48189 -81.75998 1595 ft 222 kts 270°
2026-04-30 14:01 30.48252 -81.77828 2014 ft 237 kts 273°
2026-04-30 14:01 30.48348 -81.79796 2479 ft 245 kts 272°
2026-04-30 14:01 30.48444 -81.81869 3365 ft 259 kts 272°
2026-04-30 14:02 30.48535 -81.83957 4387 ft 260 kts 272°
2026-04-30 14:02 30.48621 -81.86063 5422 ft 263 kts 272°
2026-04-30 14:02 30.48704 -81.88190 6438 ft 264 kts 271°
2026-04-30 14:02 30.48785 -81.90329 7379 ft 268 kts 271°
2026-04-30 14:03 30.48865 -81.92484 8355 ft 268 kts 271°
2026-04-30 14:03 30.48944 -81.94661 9339 ft 292 kts 271°
2026-04-30 14:03 30.49024 -81.96851 10246 ft 276 kts 271°
2026-04-30 14:03 30.49105 -81.99147 10859 ft 294 kts 271°
2026-04-30 14:04 30.49189 -82.01589 11445 ft 310 kts 271°
2026-04-30 14:04 30.49277 -82.04172 12007 ft 328 kts 271°
2026-04-30 14:04 30.49372 -82.06898 12512 ft 349 kts 271°
2026-04-30 14:04 30.49473 -82.09768 13068 ft 363 kts 271°
2026-04-30 14:05 30.49577 -82.12696 13783 ft 365 kts 271°
2026-04-30 14:05 30.49683 -82.15664 14464 ft 368 kts 271°
2026-04-30 14:05 30.49788 -82.18651 14889 ft 376 kts 271°
2026-04-30 14:05 30.49894 -82.21668 15634 ft 376 kts 271°
2026-04-30 14:06 30.49999 -82.24711 16353 ft 379 kts 271°
2026-04-30 14:06 30.50208 -82.30834 17711 ft 381 kts 271°
2026-04-30 14:07 30.50417 -82.37056 19014 ft 388 kts 272°
2026-04-30 14:07 30.50520 -82.40159 19631 ft 391 kts 272°
2026-04-30 14:07 30.50624 -82.43319 20217 ft 392 kts 272°
2026-04-30 14:08 30.50833 -82.49692 21342 ft 398 kts 272°
2026-04-30 14:08 30.50937 -82.52909 21886 ft 399 kts 272°
2026-04-30 14:08 30.51145 -82.59390 22887 ft 401 kts 272°
2026-04-30 14:09 30.51250 -82.62705 23384 ft 403 kts 272°
2026-04-30 14:09 30.51318 -82.64884 23677 ft 409 kts 272°
2026-04-30 14:09 30.51558 -82.72589 24674 ft 413 kts 272°
2026-04-30 14:10 30.51660 -82.75922 25100 ft 416 kts 272°
2026-04-30 14:10 30.51763 -82.79282 25526 ft 420 kts 272°
2026-04-30 14:10 30.51865 -82.82656 25947 ft 417 kts 272°
2026-04-30 14:10 30.51967 -82.86056 26329 ft 421 kts 272°
2026-04-30 14:11 30.52035 -82.88360 26617 ft 423 kts 272°
2026-04-30 14:11 30.52136 -82.91779 26996 ft 426 kts 272°
2026-04-30 14:11 30.52235 -82.95166 27382 ft 426 kts 272°
2026-04-30 14:11 30.52335 -82.98622 27784 ft 430 kts 273°
2026-04-30 14:12 30.52434 -83.02055 28302 ft 427 kts 273°
2026-04-30 14:12 30.52532 -83.05524 28606 ft 431 kts 273°
2026-04-30 14:12 30.52632 -83.09022 28901 ft 434 kts 273°
2026-04-30 14:12 30.52732 -83.12530 29398 ft 434 kts 273°
2026-04-30 14:13 30.52830 -83.16032 29896 ft 434 kts 273°
2026-04-30 14:13 30.52926 -83.19529 30414 ft 433 kts 273°
2026-04-30 14:13 30.53018 -83.23012 30954 ft 430 kts 273°
2026-04-30 14:13 30.53104 -83.26476 31527 ft 424 kts 273°
2026-04-30 14:14 30.53188 -83.29944 32119 ft 429 kts 274°
2026-04-30 14:14 30.53271 -83.33391 32747 ft 426 kts 274°
2026-04-30 14:14 30.53354 -83.36820 33325 ft 425 kts 274°
2026-04-30 14:14 30.53438 -83.40250 33805 ft 423 kts 275°
2026-04-30 14:15 30.53524 -83.43661 33996 ft 420 kts 275°
2026-04-30 14:15 30.53704 -83.50387 33999 ft 418 kts 275°
2026-04-30 14:16 30.53890 -83.57121 33994 ft 418 kts 275°
2026-04-30 14:16 30.54069 -83.63843 33997 ft 417 kts 275°
2026-04-30 14:17 30.54236 -83.70570 33999 ft 417 kts 275°
2026-04-30 14:17 30.54393 -83.77338 33999 ft 459 kts 275°
2026-04-30 14:17 30.54469 -83.80662 34000 ft 417 kts 275°
2026-04-30 14:18 30.54544 -83.84028 34003 ft 418 kts 275°
2026-04-30 14:18 30.54763 -83.94141 34005 ft 416 kts 275°
2026-04-30 14:19 30.54974 -84.04242 34006 ft 399 kts 275°
2026-04-30 14:19 30.55042 -84.07608 34008 ft 418 kts 275°
2026-04-30 14:20 30.55109 -84.10978 34010 ft 418 kts 275°
2026-04-30 14:20 30.55310 -84.21102 34012 ft 418 kts 275°
2026-04-30 14:21 30.55439 -84.27836 34012 ft 417 kts 275°
2026-04-30 14:22 30.55689 -84.37897 34013 ft 413 kts 279°
2026-04-30 14:22 30.56945 -84.47811 34010 ft 414 kts 281°
2026-04-30 14:23 30.58596 -84.61064 34010 ft 416 kts 281°
2026-04-30 14:24 30.59828 -84.71004 34000 ft 415 kts 281°
2026-04-30 14:25 30.61456 -84.84232 33997 ft 414 kts 280°
2026-04-30 14:26 30.62667 -84.94146 34011 ft 412 kts 280°
2026-04-30 14:27 30.63870 -85.04059 34017 ft 412 kts 280°
2026-04-30 14:27 30.64669 -85.10676 34018 ft 413 kts 280°
2026-04-30 14:28 30.65857 -85.20577 34025 ft 415 kts 280°
2026-04-30 14:28 30.66601 -85.26806 34023 ft 412 kts 280°
2026-04-30 14:29 30.68171 -85.40044 33981 ft 415 kts 280°
2026-04-30 14:31 30.70116 -85.56604 33950 ft 412 kts 280°
2026-04-30 14:31 30.71272 -85.66535 33944 ft 413 kts 280°
2026-04-30 14:32 30.72421 -85.76477 33968 ft 414 kts 279°
2026-04-30 14:33 30.73184 -85.83115 33972 ft 415 kts 279°
2026-04-30 14:33 30.74322 -85.93074 33999 ft 413 kts 279°
2026-04-30 14:34 30.75078 -85.99726 34000 ft 414 kts 279°
2026-04-30 14:34 30.75830 -86.06373 33999 ft 415 kts 279°
2026-04-30 14:35 30.76946 -86.16299 33999 ft 415 kts 279°
2026-04-30 14:36 30.77686 -86.22924 34022 ft 415 kts 279°
2026-04-30 14:36 30.78422 -86.29541 34052 ft 412 kts 279°
2026-04-30 14:37 30.79155 -86.36157 34066 ft 450 kts 279°
2026-04-30 14:37 30.79521 -86.39474 34068 ft 412 kts 279°
2026-04-30 14:37 30.79886 -86.42790 34072 ft 412 kts 279°
2026-04-30 14:38 30.80615 -86.49436 34071 ft 415 kts 279°
2026-04-30 14:38 30.81341 -86.56084 34072 ft 413 kts 279°
2026-04-30 14:39 30.82063 -86.62735 34067 ft 414 kts 279°
2026-04-30 14:39 30.82471 -86.69422 34059 ft 416 kts 270°
2026-04-30 14:40 30.81994 -86.79494 34041 ft 416 kts 270°
2026-04-30 14:40 30.81638 -86.86274 34045 ft 417 kts 270°
2026-04-30 14:41 30.81270 -86.92954 34055 ft 415 kts 270°
2026-04-30 14:41 30.80893 -86.99689 34060 ft 415 kts 270°
2026-04-30 14:42 30.80512 -87.06414 34059 ft 417 kts 270°
2026-04-30 14:42 30.80129 -87.13163 34054 ft 416 kts 270°
2026-04-30 14:43 30.79745 -87.19905 34010 ft 417 kts 270°
2026-04-30 14:43 30.79357 -87.26664 34018 ft 418 kts 270°
2026-04-30 14:44 30.78966 -87.33423 34013 ft 418 kts 270°
2026-04-30 14:44 30.78574 -87.40128 34016 ft 420 kts 270°
2026-04-30 14:45 30.78173 -87.46926 34025 ft 418 kts 270°
2026-04-30 14:45 30.77773 -87.53634 34025 ft 418 kts 269°
2026-04-30 14:46 30.77368 -87.60376 34036 ft 419 kts 269°
2026-04-30 14:46 30.76960 -87.67124 34035 ft 418 kts 269°
2026-04-30 14:47 30.76548 -87.73863 34045 ft 416 kts 269°
2026-04-30 14:47 30.76133 -87.80607 34050 ft 418 kts 269°
2026-04-30 14:48 30.75718 -87.87302 34059 ft 418 kts 269°
2026-04-30 14:48 30.75296 -87.94028 34063 ft 415 kts 269°
2026-04-30 14:49 30.74873 -88.00725 34065 ft 416 kts 269°
2026-04-30 14:49 30.74446 -88.07431 34067 ft 416 kts 269°
2026-04-30 14:50 30.73801 -88.17436 34052 ft 402 kts 269°
2026-04-30 14:51 30.73384 -88.23806 33071 ft 395 kts 269°
2026-04-30 14:51 30.73180 -88.26953 32685 ft 411 kts 269°
2026-04-30 14:51 30.72774 -88.33213 32003 ft 387 kts 269°
2026-04-30 14:52 30.72296 -88.36303 31559 ft 393 kts 258°
2026-04-30 14:52 30.70093 -88.42100 30564 ft 391 kts 250°
2026-04-30 14:52 30.68835 -88.44886 30048 ft 388 kts 249°
2026-04-30 14:53 30.66294 -88.50374 29079 ft 385 kts 249°
2026-04-30 14:53 30.65045 -88.53108 28929 ft 383 kts 249°
2026-04-30 14:54 30.62602 -88.58549 28570 ft 379 kts 249°
2026-04-30 14:54 30.60203 -88.63956 27776 ft 373 kts 249°
2026-04-30 14:55 30.57848 -88.69291 27006 ft 368 kts 249°
2026-04-30 14:55 30.56675 -88.71941 26627 ft 368 kts 249°
2026-04-30 14:55 30.54360 -88.77150 25839 ft 361 kts 248°
2026-04-30 14:56 30.52049 -88.82333 25051 ft 361 kts 248°
2026-04-30 14:56 30.49768 -88.87439 24308 ft 353 kts 248°
2026-04-30 14:57 30.48635 -88.89974 23904 ft 352 kts 248°
2026-04-30 14:57 30.46388 -88.94996 23095 ft 347 kts 247°
2026-04-30 14:58 30.44163 -88.99965 22284 ft 345 kts 247°
2026-04-30 14:58 30.43063 -89.02417 21933 ft 342 kts 247°
2026-04-30 14:58 30.40866 -89.07316 21173 ft 340 kts 247°
2026-04-30 14:59 30.39062 -89.12306 20446 ft 334 kts 250°
2026-04-30 15:00 30.36298 -89.19674 19337 ft 332 kts 250°
2026-04-30 15:00 30.34479 -89.24538 18555 ft 327 kts 250°
2026-04-30 15:01 30.32706 -89.29321 17612 ft 327 kts 249°
2026-04-30 15:01 30.32105 -89.30946 17359 ft 323 kts 249°
2026-04-30 15:01 30.30058 -89.36475 16507 ft 321 kts 249°
2026-04-30 15:02 30.29179 -89.38844 16141 ft 319 kts 249°
2026-04-30 15:02 30.28307 -89.41193 15848 ft 328 kts 249°
2026-04-30 15:03 30.25694 -89.48220 14788 ft 315 kts 249°
2026-04-30 15:03 30.23968 -89.52853 14137 ft 314 kts 249°
2026-04-30 15:04 30.22249 -89.57461 13450 ft 310 kts 248°
2026-04-30 15:04 30.19695 -89.64299 12381 ft 307 kts 248°
2026-04-30 15:05 30.17187 -89.70996 11650 ft 286 kts 248°
2026-04-30 15:06 30.16220 -89.75219 11277 ft 270 kts 265°
2026-04-30 15:06 30.16045 -89.79499 11077 ft 267 kts 267°
2026-04-30 15:07 30.15917 -89.83825 11019 ft 272 kts 267°
2026-04-30 15:07 30.15804 -89.87432 10902 ft 268 kts 267°
2026-04-30 15:08 30.15659 -89.91739 10793 ft 268 kts 267°
2026-04-30 15:08 30.15434 -89.98185 10603 ft 267 kts 267°
2026-04-30 15:09 30.15282 -90.02478 10501 ft 266 kts 267°
2026-04-30 15:09 30.15129 -90.06772 10377 ft 267 kts 267°
2026-04-30 15:10 30.14974 -90.11064 10241 ft 266 kts 267°
2026-04-30 15:11 30.14672 -90.19338 9824 ft 254 kts 267°
2026-04-30 15:11 30.14520 -90.23425 9697 ft 255 kts 267°
2026-04-30 15:12 30.14291 -90.29544 9536 ft 254 kts 267°
2026-04-30 15:13 30.14137 -90.33630 9290 ft 260 kts 267°
2026-04-30 15:14 30.13804 -90.41796 9168 ft 255 kts 267°
2026-04-30 15:14 30.13507 -90.48120 9012 ft 266 kts 272°
2026-04-30 15:16 30.13152 -90.58842 8694 ft 270 kts 271°
2026-04-30 15:17 30.12944 -90.67177 8280 ft 255 kts 264°
2026-04-30 15:18 30.12395 -90.77641 7974 ft 263 kts 264°
2026-04-30 15:19 30.12119 -90.84028 7826 ft 264 kts 264°